Latest Coastal Weather Observations for Rundle Island

IDQ60701

Issued at 3:42 am EST Sunday 29 March 2015 (issued every 10 minutes, with the page automatically refreshed every 10 minutes)

About coastal observations | Map of coastal stations | Coastal observations for QLD | Marine services | Other Formats
Station Details ID: 039322 Name: RUNDLE ISLAND Lat: -23.53 Lon: 151.28 Height: 19.8 m
Data from the previous 72 hours. | See also: Recent months at Rundle Island
Date/Time
EST
Temp

°C
Wind Pressure Rain
since 9am
mm
Weather Cloud Vis
km
Sea
Height
m
Swell
Dir
 
Speed
knots
Gust
knots
hPa Trend Height
m
Period
s
Dir
29/03:30am 26.6 E 11 13 1016.7 - - - - - - - - -
29/03:00am 26.5 E 12 14 1016.6 - - - - - - - - -
29/02:30am 26.5 E 11 13 1016.8 - - - - - - - - -
29/02:00am 26.7 E 12 15 1017.0 - - - - - - - - -
29/01:30am 26.7 E 11 13 1017.0 - - - - - - - - -
29/01:00am 26.7 E 12 14 1017.6 - - - - - - - - -
29/12:30am 26.6 E 12 14 1017.7 - - - - - - - - -
29/12:00am 26.7 E 13 15 1017.9 - - - - - - - - -
 
Date/Time
EST
Temp

°C
Wind Pressure Rain
since 9am
mm
Weather Cloud Vis
km
Sea
Height
m
Swell
Dir
 
Speed
knots
Gust
knots
hPa Trend Height
m
Period
s
Dir
28/11:30pm 26.7 E 13 16 1018.1 - - - - - - - - -
28/11:00pm 26.8 E 13 16 1018.3 - - - - - - - - -
28/10:30pm 26.8 E 14 16 1018.3 - - - - - - - - -
28/10:00pm 26.8 E 14 17 1018.5 - - - - - - - - -
28/09:30pm 26.9 E 14 16 1018.5 - - - - - - - - -
28/09:00pm 26.9 E 12 15 1018.5 - - - - - - - - -
28/08:30pm 26.9 E 12 14 1018.4 - - - - - - - - -
28/08:00pm 26.7 E 13 15 1018.0 - - - - - - - - -
28/07:30pm 26.9 E 14 17 1017.4 - - - - - - - - -
28/07:00pm 27.0 E 14 16 1017.1 - - - - - - - - -
28/06:30pm 26.9 E 14 17 1016.5 - - - - - - - - -
28/06:00pm 26.9 ESE 13 15 1016.4 - - - - - - - - -
28/05:30pm 27.1 ESE 13 15 1016.2 - - - - - - - - -
28/05:00pm 27.2 ESE 11 14 1016.0 - - - - - - - - -
28/04:30pm 27.3 ESE 10 13 1016.1 - - - - - - - - -
28/04:00pm 27.6 ESE 10 12 1016.0 - - - - - - - - -
28/03:30pm 27.5 ESE 11 13 1016.3 - - - - - - - - -
28/03:00pm 27.6 ESE 11 12 1016.5 - - - - - - - - -
28/02:30pm 27.5 ESE 11 13 1016.3 - - - - - - - - -
28/02:00pm 27.7 ESE 11 13 1016.4 - - - - - - - - -
28/01:30pm 27.8 ESE 11 12 1016.8 - - - - - - - - -
28/01:00pm 28.0 ESE 10 12 1017.1 - - - - - - - - -
28/12:30pm 28.3 ESE 9 11 1017.5 - - - - - - - - -
28/12:00pm 28.1 ESE 9 11 1018.0 - - - - - - - - -
28/11:30am 28.4 ESE 9 11 1018.4 - - - - - - - - -
28/11:00am 28.1 ESE 9 10 1018.6 - - - - - - - - -
28/10:30am 28.3 E 10 11 1018.9 - - - - - - - - -
28/10:00am 27.9 ESE 10 12 1018.9 - - - - - - - - -
28/09:30am 28.0 ESE 8 10 1019.0 - - - - - - - - -
28/09:00am 27.4 ESE 7 10 1018.8 - - - - - - - - -
28/08:30am 27.4 ESE 7 8 1018.8 - - - - - - - - -
28/08:00am 27.8 ESE 7 9 1018.4 - - - - - - - - -
28/07:30am 27.2 E 7 9 1018.0 - - - - - - - - -
28/07:00am 26.8 E 7 9 1017.5 - - - - - - - - -
28/06:30am 26.7 E 6 7 1017.3 - - - - - - - - -
28/06:00am 26.4 E 6 8 1016.8 - - - - - - - - -
28/05:30am 26.5 E 8 9 1016.5 - - - - - - - - -
28/05:00am 26.5 E 8 10 1016.4 - - - - - - - - -
28/04:30am 26.4 E 9 11 1016.1 - - - - - - - - -
28/04:00am 26.4 E 8 10 1015.9 - - - - - - - - -
28/03:30am 26.4 ENE 10 12 1015.7 - - - - - - - - -
28/03:00am 26.6 ENE 8 10 1015.9 - - - - - - - - -
28/02:30am 26.5 E 7 9 1016.2 - - - - - - - - -
28/02:00am 26.5 ENE 8 10 1016.3 - - - - - - - - -
28/01:30am 26.5 ENE 9 11 1016.5 - - - - - - - - -
28/01:00am 26.6 E 8 11 1016.7 - - - - - - - - -
28/12:30am 26.6 E 8 9 1016.9 - - - - - - - - -
28/12:00am 26.7 E 8 11 1017.2 - - - - - - - - -
 
Date/Time
EST
Temp

°C
Wind Pressure Rain
since 9am
mm
Weather Cloud Vis
km
Sea
Height
m
Swell
Dir
 
Speed
knots
Gust
knots
hPa Trend Height
m
Period
s
Dir
27/11:30pm 26.7 ENE 8 11 1017.2 - - - - - - - - -
27/11:00pm 26.6 ENE 9 11 1017.3 - - - - - - - - -
27/10:30pm 26.7 E 9 11 1017.4 - - - - - - - - -
27/10:00pm 26.6 E 9 11 1017.5 - - - - - - - - -
27/09:30pm 26.6 ENE 8 10 1017.5 - - - - - - - - -
27/09:00pm 26.6 ENE 9 10 1017.3 - - - - - - - - -
27/08:30pm 26.6 ENE 9 10 1017.0 - - - - - - - - -
27/08:00pm 26.8 ENE 9 11 1016.7 - - - - - - - - -
27/07:30pm 26.8 ENE 8 10 1016.4 - - - - - - - - -
27/07:00pm 27.1 ENE 8 9 1016.0 - - - - - - - - -
27/06:30pm 27.3 ENE 8 9 1015.7 - - - - - - - - -
27/06:00pm 27.4 ENE 9 10 1015.3 - - - - - - - - -
27/05:30pm 27.6 ENE 10 11 1014.8 - - - - - - - - -
27/05:00pm 27.9 ENE 10 11 1014.6 - - - - - - - - -
27/04:30pm 28.0 ENE 9 11 1014.6 - - - - - - - - -
27/04:00pm 28.1 ENE 9 11 1014.5 - - - - - - - - -
27/03:30pm 28.2 ENE 9 11 1014.5 - - - - - - - - -
27/03:00pm 28.4 ENE 8 10 1014.7 - - - - - - - - -
27/02:30pm 28.4 ENE 9 10 1015.0 - - - - - - - - -
27/02:00pm 28.3 ENE 9 11 1015.3 - - - - - - - - -
27/01:30pm 28.3 E 9 10 1015.7 - - - - - - - - -
27/01:00pm 28.5 E 8 9 1016.1 - - - - - - - - -
27/12:30pm 29.3 E 4 7 1016.8 - - - - - - - - -
27/12:00pm 29.5 ESE 4 5 1017.4 - - - - - - - - -
27/11:30am 29.3 SSE 2 4 1018.0 - - - - - - - - -
27/11:00am 29.1 SE 3 3 1018.5 - - - - - - - - -
27/10:30am 30.8 CALM 0 2 1018.9 - - - - - - - - -
27/10:00am 28.9 NE 3 5 1019.0 - - - - - - - - -
27/09:30am 28.3 NE 5 7 1019.0 - - - - - - - - -
27/09:00am 27.9 NE 5 7 1018.8 - - - - - - - - -
27/08:30am 27.9 NE 5 6 1018.9 - - - - - - - - -
27/08:00am 28.1 ENE 4 5 1018.7 - - - - - - - - -
27/07:30am 27.3 ENE 6 7 1018.4 - - - - - - - - -
27/07:00am 27.0 ENE 5 6 1018.1 - - - - - - - - -
27/06:30am 26.6 E 7 8 1017.9 - - - - - - - - -
27/06:00am 26.4 ENE 6 8 1017.5 - - - - - - - - -
27/05:30am 26.5 ENE 8 9 1017.1 - - - - - - - - -
27/05:00am 26.4 ENE 9 10 1016.8 - - - - - - - - -
27/04:30am 26.5 ENE 9 10 1016.5 - - - - - - - - -
27/04:00am 26.7 ENE 7 10 1016.4 - - - - - - - - -
27/03:30am 26.5 ENE 8 10 1016.4 - - - - - - - - -
27/03:00am 26.6 ENE 10 11 1016.2 - - - - - - - - -
27/02:30am 26.6 NE 8 10 1016.4 - - - - - - - - -
27/02:00am 26.6 ENE 8 10 1016.6 - - - - - - - - -
27/01:30am 26.7 ENE 8 10 1016.7 - - - - - - - - -
27/01:00am 26.7 ENE 8 10 1017.0 - - - - - - - - -
27/12:30am 26.8 ENE 7 9 1017.4 - - - - - - - - -
27/12:00am 26.7 ENE 8 9 1017.5 - - - - - - - - -
 
Date/Time
EST
Temp

°C
Wind Pressure Rain
since 9am
mm
Weather Cloud Vis
km
Sea
Height
m
Swell
Dir
 
Speed
knots
Gust
knots
hPa Trend Height
m
Period
s
Dir
26/11:30pm 26.9 ENE 7 9 1017.6 - - - - - - - - -
26/11:00pm 26.9 E 7 8 1017.7 - - - - - - - - -
26/10:30pm 27.0 ENE 7 9 1017.9 - - - - - - - - -
26/10:00pm 27.0 ENE 6 7 1018.3 - - - - - - - - -
26/09:30pm 27.1 E 6 7 1018.1 - - - - - - - - -
26/09:00pm 27.1 E 5 6 1018.0 - - - - - - - - -
26/08:30pm 27.1 ENE 9 10 1017.5 - - - - - - - - -
26/08:00pm 27.1 ENE 7 9 1017.2 - - - - - - - - -
26/07:30pm 27.2 ENE 8 9 1016.7 - - - - - - - - -
26/07:00pm 27.3 ENE 9 10 1016.4 - - - - - - - - -
26/06:30pm 27.3 ENE 7 9 1016.2 - - - - - - - - -
26/06:00pm 27.4 E 6 8 1016.0 - - - - - - - - -
26/05:30pm 27.7 E 6 7 1015.6 - - - - - - - - -
26/05:00pm 28.2 ENE 4 7 1015.5 - - - - - - - - -
26/04:30pm 28.4 E 3 5 1015.3 - - - - - - - - -
26/04:00pm 28.4 E 4 5 1015.1 - - - - - - - - -
26/03:30pm 28.6 E 4 5 1015.1 - - - - - - - - -
26/03:00pm 28.8 E 4 5 1015.3 - - - - - - - - -
26/02:30pm 29.0 ENE 3 5 1015.5 - - - - - - - - -
26/02:00pm 28.9 E 3 4 1015.8 - - - - - - - - -
26/01:30pm 29.8 E 2 3 1016.1 - - - - - - - - -
26/01:00pm 29.7 ENE 1 3 1016.6 - - - - - - - - -
26/12:30pm 29.8 E 2 3 1017.0 - - - - - - - - -
26/12:00pm 30.6 NE 1 4 1017.5 - - - - - - - - -
26/11:30am 29.6 ENE 3 4 1018.0 - - - - - - - - -
26/11:00am 28.8 NE 5 6 1018.2 - - - - - - - - -
26/10:30am 29.0 ENE 5 7 1018.4 - - - - - - - - -
26/10:00am 28.3 ENE 5 7 1018.6 - - - - - - - - -
26/09:30am 28.4 ENE 5 7 1018.6 - - - - - - - - -
26/09:00am 27.7 ENE 7 9 1018.5 - - - - - - - - -
26/08:30am 27.5 ENE 7 9 1018.1 - - - - - - - - -
26/08:00am 26.8 ENE 7 9 1017.7 - - - - - - - - -
26/07:30am 26.9 ENE 7 8 1017.4 - - - - - - - - -
26/07:00am 26.6 NE 5 7 1017.1 - - - - - - - - -
26/06:30am 26.5 NE 6 8 1016.6 - - - - - - - - -
26/06:00am 26.5 NE 7 8 1016.2 - - - - - - - - -
26/05:30am 26.5 NE 6 8 1016.1 - - - - - - - - -
26/05:00am 26.6 NE 7 9 1015.7 - - - - - - - - -
26/04:30am 26.5 NNE 4 6 1015.6 - - - - - - - - -
26/04:00am 26.6 NNE 6 7 1015.4 - - - - - - - - -

Other Formats:

Comma delimited format used in spreadsheet applications
http://www.bom.gov.au/fwo/IDQ60701/IDQ60701.94378.axf

JavaScript Object Notation format (JSON) in row-major order
http://www.bom.gov.au/fwo/IDQ60701/IDQ60701.94378.json